CDT,Max TemperatureF,Mean TemperatureF,Min TemperatureF,Max Dew PointF,MeanDew PointF,Min DewpointF,Max Humidity, Mean Humidity, Min Humidity, Max Sea Level PressureIn, Mean Sea Level PressureIn, Min Sea Level PressureIn, Max VisibilityMiles, Mean VisibilityMiles, Min VisibilityMiles, Max Wind SpeedMPH, Mean Wind SpeedMPH, Max Gust SpeedMPH,PrecipitationIn, CloudCover, Events, WindDirDegrees
2012-10-1,69,56,44,46,36,28,71,44,23,30.05,29.99,29.93,10,9,5,22,8,30,0.00,1,Rain,354
2012-10-2,73,52,32,32,25,16,87,44,12,30.02,29.93,29.83,10,9,4,15,4,21,0.00,0,,208
2012-10-3,78,56,35,37,30,23,81,41,13,29.89,29.82,29.73,10,10,5,23,6,29,0.00,0,,179
2012-10-4,50,44,37,39,31,27,81,61,43,30.29,30.15,29.88,10,10,5,38,22,48,0.00,7,,311
2012-10-5,48,37,26,27,21,14,86,54,29,30.28,30.26,30.21,10,10,7,25,10,34,0.00,0,,309
2012-10-6,44,35,26,27,22,18,80,59,34,30.34,30.29,30.27,10,10,10,15,7,25,0.00,4,,337
2012-10-7,55,34,14,25,17,10,86,52,20,30.27,30.07,29.88,10,10,7,17,4,26,0.00,0,,221
2012-10-8,69,50,32,45,30,21,82,48,21,29.87,29.77,29.67,10,10,7,26,8,31,0.00,4,Rain,231
2012-10-9,51,43,33,43,30,23,87,57,35,30.09,29.92,29.78,10,10,10,29,10,39,0.00,6,Rain,303
2012-10-10,60,43,26,28,23,18,80,51,22,30.16,30.04,29.89,10,10,10,18,9,25,0.00,0,,244
2012-10-11,51,40,30,32,27,18,70,53,39,30.41,30.13,29.88,10,10,10,17,10,24,0.00,2,Rain,10
2012-10-12,55,39,23,37,19,9,86,48,16,30.41,30.24,29.96,10,10,10,24,7,32,0.00,3,,161
2012-10-13,71,60,48,52,46,37,94,68,41,29.95,29.74,29.64,10,8,2,20,11,25,0.00,4,,184
2012-10-14,62,50,35,45,34,30,82,58,30,29.97,29.86,29.73,10,10,5,23,9,29,0.00,0,,342
2012-10-15,69,50,30,37,32,27,93,57,25,29.98,29.87,29.69,10,10,7,17,3,20,0.00,0,,176
2012-10-16,73,60,46,43,40,37,81,54,27,29.68,29.50,29.35,10,10,5,14,5,20,0.00,0,,273
2012-10-17,64,54,42,48,39,32,87,64,40,29.47,29.35,29.18,10,10,4,34,18,54,0.00,6,Rain,283
2012-10-18,46,42,39,43,38,34,93,83,70,29.50,29.38,29.28,10,7,2,37,27,45,0.21,8,Rain,311
2012-10-19,42,42,41,37,37,36,87,84,76,29.79,29.69,29.51,10,9,4,26,19,39,0.02,8,Rain,335
2012-10-20,59,46,33,43,39,32,100,81,55,29.80,29.75,29.69,10,7,0,15,5,18,0.00,3,Fog-Snow,177
2012-10-21,66,54,42,46,42,37,87,71,43,29.91,29.77,29.69,10,10,7,16,8,21,0.00,0,,116
2012-10-22,55,50,44,52,45,41,93,81,72,29.92,29.87,29.78,10,9,5,18,10,23,0.00,5,,45
2012-10-23,59,56,53,54,52,50,100,89,77,29.80,29.73,29.68,10,4,0,12,5,,0.00,8,Fog-Rain,193
2012-10-24,53,47,41,50,41,32,94,80,61,29.88,29.84,29.81,10,8,3,18,9,31,0.00,7,Rain,7
2012-10-25,39,36,32,34,30,27,93,82,70,30.29,30.03,29.80,10,8,1,26,17,34,0.01,8,Rain-Snow-Thunderstorm,332
2012-10-26,37,32,26,27,25,23,86,69,60,30.44,30.38,30.29,10,10,10,15,11,23,0.00,7,,300
2012-10-27,41,30,19,30,25,18,93,76,57,30.37,30.31,30.25,10,10,5,14,4,17,0.00,2,,174
2012-10-28,50,41,32,32,30,27,87,71,47,30.27,30.23,30.17,10,10,10,20,8,24,0.00,4,,166
2012-10-29,53,45,37,32,30,28,81,61,41,30.20,30.15,30.11,10,10,10,22,12,28,0.00,1,,153
2012-10-30,46,40,33,30,28,21,87,65,37,30.14,30.11,30.06,10,10,10,12,6,,0.00,6,Rain,115
2012-10-31,57,42,28,34,30,25,93,69,36,30.08,30.02,29.96,10,9,5,9,1,,0.00,1,,239